Flag for Canada Weather past 2 weeks in Yorkton, Saskatchewan, Canada

Now
52 °F

Clear.


Feels Like: 51 °F
Forecast: 50 / 74 °F
Wind: 5 mph from West

Location: Yorkton

Current Time: Aug 3, 2015 at 3:07:56 AM

Latest Report: Aug 3, 2015 at 2:00 AM


Visibility: 9 mi

Pressure: 29.98 "Hg (28.22 "Hg at 505m altitude)

Humidity: 88%

Dew point: 48 °F

Location of YorktonLocation

Historic Weather in Yorkton — Graph

°F

Yorkton temperature yesterday

Maximum temperature yesterday: 73 °F (at 3:00 PM)
Minimum temperature yesterday: 55 °F (at 4:00 AM)
Average temperature yesterday: 64 °F

Past Weeks' High & Low Weather Summary

 TemperatureHumidityPressure
High84 °F (Jul 25, 4:00 PM)100% (Jul 21, 4:00 AM)30.12 "Hg (Jul 21, 4:00 AM)
Low50 °F (Jul 21, 3:00 AM)36% (Jul 31, 2:00 PM)29.32 "Hg (Jul 28, 4:00 PM)
Average66 °F73%29.83 "Hg
* Reported Jul 19 2:00 AM — Aug 3 2:00 AM, Yorkton, Weather by CustomWeather, © 2015

Note: Actual official high and low records may vary slightly from our data, if they occured in-between our weather recording intervals... More about our weather records

Advertising

Yorkton weather history for previous 24 hours

 ConditionsComfort  
Time TempWeatherWind HumidityBarometerVisibility
2:00 AM
Mon, Aug 3
52 °FClear.5 mph88%29.98 "Hg9 mi
1:00 AM54 °FClear.8 mph88%29.98 "Hg9 mi
12:00 AM54 °FClear.8 mph88%29.97 "Hg9 mi
11:00 PM
Sun, Aug 2
55 °FClear.10 mph88%29.96 "Hg9 mi
9:00 PM59 °FClear.8 mph77%29.96 "Hg9 mi
8:00 PM66 °FSunny.8 mph56%29.95 "Hg9 mi
7:00 PM70 °FSunny.13 mph50%29.94 "Hg9 mi
6:00 PM72 °FSunny.16 mph44%29.93 "Hg9 mi
5:00 PM73 °FPassing clouds.17 mph41%29.93 "Hg9 mi
4:00 PM73 °FSunny.18 mph38%29.93 "Hg9 mi
3:00 PM73 °FSunny.20 mph36%29.94 "Hg9 mi
2:00 PM72 °FSunny.16 mph41%29.94 "Hg9 mi
1:00 PM72 °FSunny.21 mph38%29.94 "Hg9 mi
12:00 PM70 °FSunny.22 mph38%29.95 "Hg9 mi
11:00 AM70 °FSunny.20 mph43%29.95 "Hg9 mi
10:00 AM68 °FSunny.13 mph56%29.95 "Hg9 mi
9:00 AM64 °FSunny.12 mph64%29.95 "Hg9 mi
8:46 AM63 °FSunny.13 mph68%29.95 "Hg9 mi
8:00 AM61 °FSunny.13 mph77%29.94 "Hg9 mi
7:00 AM57 °FSunny.10 mph88%29.93 "Hg9 mi
6:00 AM55 °FSunny.9 mph88%29.91 "Hg9 mi
5:00 AM55 °FClear.8 mph94%29.90 "Hg9 mi
4:00 AM55 °FClear.9 mph94%29.88 "Hg9 mi
3:00 AM57 °FPassing clouds.8 mph88%29.87 "Hg9 mi
Weather by CustomWeather, © 2015

See weather overviewHow to use our weather pages